Change the Weather History Date:

Sunday, August 31, 2014

  Actual Average Record
Temperature  
Mean Temperature 82 °F 81 °F  
Max Temperature 90 °F 93 °F 109 °F (2000)
Min Temperature 74 °F 70 °F 56 °F (1911)
Degree Days  
Heating Degree Days 0 0  
Month to date heating degree days 0 0  
Since 1 June heating degree days 0 0  
Since 1 July heating degree days 0 0  
Cooling Degree Days 17 16  
Month to date cooling degree days 619 552  
Year to date cooling degree days 2234 2023  
Since 1 June cooling degree days 1738 1554  
Growing Degree Days 32 (Base 50)    
Moisture  
Dew Point 73 °F    
Average Humidity 79    
Maximum Humidity 94    
Minimum Humidity 63    
Precipitation  
Precipitation 0.02 in 0.12 in 3.95 in (1944)
Month to date precipitation 2.60 3.34  
Year to date precipitation 31.92 30.59  
Snow  
Snow 0.00 in - - ()
Month to date snowfall 0.0  
Since 1 June snowfall 0.0  
Since 1 July snowfall 0.0  
Snow Depth 0.00 in    
Sea Level Pressure  
Sea Level Pressure 30.00 in    
Wind  
Wind Speed 7 mph (SE)    
Max Wind Speed 21 mph    
Max Gust Speed 28 mph    
Visibility 8 miles    
Events Fog , Rain    
T = Trace of Precipitation, MM = Missing Value Source: NWS Daily Summary

Daily Weather History Graph

Daily Weather History Graph

Search for Another Location

Airport or City:

Trip Planner

Search our weather history database for the weather conditions in past years. The results will help you decide how hot, cold, wet, or windy it might be!

Date:

Astronomy

Aug. 31, 2014 Rise Set
Actual Time 6:54 AM CDT 7:43 PM CDT
Civil Twilight 6:29 AM CDT 8:08 PM CDT
Nautical Twilight 6:00 AM CDT 8:37 PM CDT
Astronomical Twilight 5:30 AM CDT 9:07 PM CDT
Moon 12:18 PM CDT (8/31) 11:23 PM CDT (8/31)
Length of Visible Light 13h 38m
Length of Day
12h 49m
Waxing Crescent, 32% of the Moon is Illuminated
Aug 31
Waxing Crescent
Sep 2
First Quarter
Sep 8
Full
Sep 15
Last Quarter
Sep 24
New

Hourly Weather History & Observations

Time (CDT) Temp. Heat Index Dew Point Humidity Pressure Visibility Wind Dir Wind Speed Gust Speed Precip Events Conditions
12:53 AM 79.0 °F - 73.0 °F 82% 29.96 in 10.0 mi SSE 5.8 mph - N/A   Overcast
1:46 AM 77.0 °F - 73.0 °F 88% 29.97 in 10.0 mi SSE 4.6 mph - N/A   Scattered Clouds
1:53 AM 77.0 °F - 73.0 °F 88% 29.96 in 10.0 mi SSE 5.8 mph - N/A   Partly Cloudy
2:53 AM 75.9 °F - 72.0 °F 87% 29.96 in 10.0 mi SE 3.5 mph - N/A   Clear
3:53 AM 75.0 °F - 71.1 °F 87% 29.96 in 10.0 mi ESE 3.5 mph - N/A   Clear
4:53 AM 75.0 °F - 71.1 °F 87% 29.97 in 9.0 mi SE 4.6 mph - N/A   Partly Cloudy
5:05 AM 75.0 °F - 71.1 °F 87% 29.98 in 7.0 mi East 3.5 mph - N/A   Mostly Cloudy
5:25 AM 75.0 °F - 71.1 °F 87% 29.99 in 10.0 mi ESE 3.5 mph - N/A   Scattered Clouds
5:53 AM 75.0 °F - 71.1 °F 87% 29.98 in 10.0 mi SE 5.8 mph - N/A   Clear
6:07 AM 75.0 °F - 71.1 °F 87% 30.00 in 7.0 mi SE 4.6 mph - N/A   Mostly Cloudy
6:20 AM 75.0 °F - 72.0 °F 90% 30.00 in 3.0 mi ESE 4.6 mph - N/A   Mostly Cloudy
6:27 AM 75.0 °F - 72.0 °F 90% 30.00 in 2.5 mi ESE 4.6 mph - N/A   Overcast
6:36 AM 75.9 °F - 72.0 °F 87% 30.01 in 4.0 mi SE 4.6 mph - N/A   Overcast
6:53 AM 75.9 °F - 72.0 °F 87% 30.00 in 1.8 mi SE 4.6 mph - N/A   Overcast
7:09 AM 75.9 °F - 73.0 °F 91% 30.01 in 0.5 mi ESE 4.6 mph - N/A Fog Fog
7:16 AM 75.9 °F - 73.0 °F 91% 30.01 in 0.2 mi ESE 4.6 mph - N/A Fog Fog
7:53 AM 75.9 °F - 73.0 °F 91% 30.01 in 0.2 mi SE 4.6 mph - N/A Fog Fog
8:01 AM 75.9 °F - 73.0 °F 91% 30.02 in 0.5 mi SE 5.8 mph - N/A Fog Fog
8:20 AM 75.9 °F - 73.0 °F 91% 30.02 in 1.5 mi SE 6.9 mph - N/A   Overcast
8:32 AM 77.0 °F - 73.9 °F 90% 30.02 in 2.5 mi ESE 8.1 mph - N/A   Overcast
8:53 AM 78.1 °F - 73.9 °F 87% 30.01 in 7.0 mi ESE 5.8 mph - N/A   Overcast
9:40 AM 79.0 °F - 75.0 °F 88% 30.03 in 10.0 mi SE 4.6 mph - N/A   Overcast
9:53 AM 81.0 °F 86.2 °F 73.9 °F 79% 30.02 in 10.0 mi Calm Calm - N/A   Mostly Cloudy
10:12 AM 82.9 °F 90.2 °F 75.0 °F 77% 30.03 in 10.0 mi SE 4.6 mph - N/A   Mostly Cloudy
10:53 AM 86.0 °F 95.1 °F 75.0 °F 70% 30.02 in 10.0 mi SE 10.4 mph - N/A   Overcast
11:25 AM 88.0 °F 97.5 °F 75.0 °F 65% 30.03 in 10.0 mi SE 9.2 mph - N/A   Scattered Clouds
11:50 AM 89.6 °F 99.8 °F 75.2 °F 62% 30.03 in 10.0 mi South 9.2 mph - N/A   Mostly Cloudy
11:53 AM 88.0 °F 96.5 °F 73.9 °F 63% 30.02 in 10.0 mi SSE 11.5 mph - N/A   Mostly Cloudy
12:24 PM 80.1 °F 84.2 °F 73.0 °F 79% 30.04 in 10.0 mi South 9.2 mph - 0.00 in   Scattered Clouds
12:53 PM 84.0 °F 91.2 °F 73.9 °F 72% 30.01 in 10.0 mi SE 9.2 mph - 0.01 in   Scattered Clouds
1:53 PM 82.0 °F 87.9 °F 73.9 °F 76% 30.02 in 9.0 mi South 15.0 mph 21.9 mph 0.00 in Rain Light Rain
2:22 PM 80.1 °F 85.1 °F 75.0 °F 85% 30.03 in 10.0 mi South 10.4 mph - 0.01 in   Overcast
2:53 PM 82.0 °F 88.6 °F 75.0 °F 79% 30.02 in 10.0 mi South 10.4 mph - 0.01 in   Mostly Cloudy
3:53 PM 82.9 °F 88.0 °F 72.0 °F 69% 29.99 in 10.0 mi South 9.2 mph - N/A   Partly Cloudy
4:53 PM 82.0 °F 87.4 °F 73.0 °F 74% 29.98 in 10.0 mi SSE 11.5 mph - 0.00 in   Clear
5:53 PM 84.0 °F 90.2 °F 73.0 °F 69% 29.96 in 10.0 mi SSE 12.7 mph - N/A   Clear
6:53 PM 82.0 °F 86.7 °F 72.0 °F 71% 29.96 in 10.0 mi SSE 6.9 mph - N/A   Clear
7:53 PM 80.1 °F 83.8 °F 72.0 °F 76% 29.96 in 10.0 mi SSE 6.9 mph - N/A   Clear
8:53 PM 78.1 °F - 73.0 °F 84% 29.96 in 10.0 mi SE 5.8 mph - N/A   Clear
9:53 PM 77.0 °F - 72.0 °F 84% 29.97 in 10.0 mi SE 5.8 mph - N/A   Clear
10:53 PM 77.0 °F - 72.0 °F 84% 29.96 in 10.0 mi SE 6.9 mph - N/A   Clear
11:53 PM 75.9 °F - 72.0 °F 87% 29.96 in 10.0 mi SE 4.6 mph - N/A   Partly Cloudy